This is the latest recevied weather packets stored in our database for station/object XW7RMR. If no packets are shown the sender has not sent any weather packets the latest 10 day(s).
| Time | Temp. | Humidity | Pressure | Rain* | Wind** | Luminosity | Snow |
|---|---|---|---|---|---|---|---|
| 1777848406 | 32.78° C | 26% | 1006.5 hPa | 0 mm | - | 631 W/m² | - |
| 1777848103 | 32.78° C | 28% | 1006.5 hPa | 0 mm | - | 638 W/m² | - |
| 1777847801 | 33.33° C | 24% | 1006.5 hPa | 0 mm | - | 650 W/m² | - |
| 1777847497 | 32.22° C | 24% | 1006.7 hPa | 0 mm | - | 662 W/m² | - |
| 1777847195 | 31.67° C | 26% | 1006.7 hPa | 0 mm | - | 675 W/m² | - |
| 1777846892 | 31.67° C | 25% | 1006.8 hPa | 0 mm | - | 680 W/m² | - |
| 1777846591 | 31.67° C | 27% | 1006.9 hPa | 0 mm | - | 693 W/m² | - |
| 1777846288 | 31.67° C | 27% | 1007.2 hPa | 0 mm | - | 704 W/m² | - |
| 1777845984 | 31.67° C | 27% | 1007.2 hPa | 0 mm | - | 711 W/m² | - |
| 1777845681 | 31.67° C | 28% | 1007 hPa | 0 mm | - | 721 W/m² | - |
| 1777845378 | 31.67° C | 28% | 1007 hPa | 0 mm | - | 732 W/m² | - |
| 1777845074 | 32.22° C | 28% | 1007.3 hPa | 0 mm | - | 739 W/m² | - |
| 1777844774 | 31.67° C | 29% | 1007.5 hPa | 0 mm | - | 748 W/m² | - |
| 1777844469 | 32.22° C | 30% | 1007.5 hPa | 0 mm | - | 754 W/m² | - |
| 1777844168 | 32.22° C | 29% | 1007.4 hPa | 0 mm | - | 764 W/m² | - |
| 1777843864 | 31.67° C | 31% | 1007.5 hPa | 0 mm | - | 764 W/m² | - |
| 1777843562 | 31.11° C | 31% | 1007.7 hPa | 0 mm | - | 770 W/m² | - |
| 1777843259 | 30.56° C | 32% | 1007.6 hPa | 0 mm | - | 781 W/m² | - |
| 1777842956 | 31.11° C | 32% | 1007.6 hPa | 0 mm | - | 786 W/m² | - |
| 1777842651 | 31.11° C | 32% | 1007.7 hPa | 0 mm | - | 790 W/m² | - |
| 1777842349 | 30.56° C | 33% | 1007.7 hPa | 0 mm | - | 797 W/m² | - |
| 1777842044 | 31.67° C | 32% | 1007.9 hPa | 0 mm | - | 801 W/m² | - |
| 1777841741 | 30.56° C | 33% | 1007.9 hPa | 0 mm | - | 807 W/m² | - |
| 1777841438 | 30.56° C | 34% | 1008 hPa | 0 mm | - | 811 W/m² | - |
| 1777841134 | 30° C | 32% | 1008.2 hPa | 0 mm | - | 813 W/m² | - |
* Rain latest hour (hover to see other rain measurements)
** Current wind speed in m/s (hover to see current wind gust speed)